Regional Weather Roundup
Issued by NWS

Home | Current Version | Previous Version | Graphics & Text | Print | Product List | Glossary On
Versions: 1 2 3 4 5 6 7 8 9 10 11 12 13 14 15 16 17 18 19 20 21 22 23 24 25 26 27 28 29 30 31 32 33 34 35 36 37 38 39 40 41 42 43 44 45 46 47 48 49 50
000
ASUS43 KBIS 191310
RWRND

NORTH DAKOTA REGIONAL WEATHER ROUNDUP
NATIONAL WEATHER SERVICE BISMARCK ND
800 AM CDT THU APR 19 2018

NOTE: "FAIR" INDICATES FEW OR NO CLOUDS BELOW 12,000 FEET WITH NO
SIGNIFICANT WEATHER AND/OR OBSTRUCTIONS TO VISIBILITY.


NDZ001>003-009>011-017-191400-
NORTHWEST NORTH DAKOTA

CITY           SKY/WX    TMP DP  RH WIND       PRES   REMARKS
WILLISTON      FOG       34  34 100 N6        30.38S VSB 1/4
MINOT          PTSUNNY   37  34  89 SW3       30.38F FOG
MINOT AFB      FOG       34  34 100 NW8       30.37F VSB 7/8
$$

NDZ018>021-031>035-040>046-191400-
SOUTHWEST NORTH DAKOTA

CITY           SKY/WX    TMP DP  RH WIND       PRES   REMARKS
BISMARCK       MOSUNNY   30  29  96 W3        30.41R FOG
DICKINSON      FOG       27  25  92 E3        30.33S VSB<1/4
GARRISON         N/A     34  33  96 N3        30.39R
HETTINGER ARPT PTCLDY    26  24  92 CALM      30.36R
$$

NDZ004>008-012>016-024-026-027-054-191400-
NORTHEAST NORTH DAKOTA

CITY           SKY/WX    TMP DP  RH WIND       PRES   REMARKS
GRAND FORKS    FAIR      31  30  96 CALM      30.39R
GRND FRKS AFB  FAIR      34  29  82 CALM      30.38R
DEVILS LAKE    FAIR      31  28  89 CALM      30.39R
$$

NDZ022-023-025-028>030-036>039-047>053-191400-
SOUTHEAST NORTH DAKOTA

CITY           SKY/WX    TMP DP  RH WIND       PRES   REMARKS
FARGO          FAIR      32  31  96 CALM      30.39R
JAMESTOWN      SUNNY     32  30  92 CALM      30.38R
$$





USA.gov is the U.S. government's official web portal to all federal, state and local government web resources and services.